Flag for Angola Weather past 2 weeks in Luanda, Angola

Now
75 °F

Passing clouds.


Feels Like: 74 °F
Forecast: 79 / 87 °F
Wind: 2 mph from North

Location: Luanda Airport


UV Index: 7 (High)

Visibility: N/A


Pressure: 29.83 "Hg

Humidity: 94%

Dew point: 73 °F

Location of LuandaLocation

Historic Weather in Luanda

°F

Luanda temperature yesterday

Maximum temperature yesterday: 88 °F (at 12:00 PM)
Minimum temperature yesterday: 73 °F (at 8:00 PM)
Average temperature yesterday: 82 °F

Past Weeks' High & Low Weather Summary

 TemperatureHumidityPressure
High91 °F (Apr 5, 12:00 PM)100% (Apr 10, 9:00 AM)30.12 "Hg (Apr 10, 9:00 AM)
Low70 °F (Apr 10, 9:00 AM)52% (Apr 5, 12:00 PM)29.71 "Hg (Apr 17, 4:00 PM)
Average81 °F80%29.87 "Hg
* Reported Apr 3 11:00 PM — Apr 18 11:00 PM, Luanda, Weather by CustomWeather, © 2014

Note: Actual official high and low records may vary slightly from our data, if they occured in-between our weather recording intervals... More about our weather records

Advertising

Historic Weather Conditions — Data for Previous 24 hours

 ConditionsComfort  
Time TempWeatherWind HumidityBarometerVisibility
11:00 PM
Apr 18
81 °FPassing clouds.6 mph79%29.86 "HgN/A
10:00 PM75 °FPassing clouds.3 mph89%29.83 "HgN/A
8:00 PM73 °FLight rain. Passing clouds.6 mph94%29.80 "Hg3 mi
7:00 PM77 °FRain. Passing clouds.23 mph79%29.86 "Hg1 mi
4:00 PM86 °FPartly sunny.10 mph70%N/AN/A
3:00 PM86 °FPartly sunny.10 mph70%29.74 "HgN/A
2:00 PM86 °FScattered clouds.9 mph79%29.77 "HgN/A
1:00 PM88 °FPartly sunny.7 mph70%29.80 "HgN/A
12:00 PM88 °FBroken clouds.6 mph75%29.83 "HgN/A
11:00 AM84 °FBroken clouds.5 mph79%29.86 "HgN/A
10:00 AM86 °FPartly sunny.3 mph70%29.89 "HgN/A
9:00 AM84 °FBroken clouds.8 mph79%29.86 "HgN/A
8:00 AM82 °FBroken clouds.8 mph84%29.86 "HgN/A
7:00 AM79 °FBroken clouds.7 mph94%29.83 "HgN/A
6:00 AM79 °FPartly cloudy.6 mph94%29.80 "HgN/A
5:00 AM79 °FPartly cloudy.3 mph94%29.80 "HgN/A
4:00 AM79 °FPartly cloudy.5 mph94%29.80 "HgN/A
3:00 AM79 °FPartly cloudy.3 mph94%29.77 "HgN/A
2:00 AM81 °FPassing clouds.6 mph89%29.77 "HgN/A
1:00 AM81 °FPassing clouds.7 mph89%29.80 "HgN/A
Weather by CustomWeather, © 2014

See weather overview